• In Belgium
  • List of Countries
  • For 7 days
  • Water Temperature
  • Satellite Maps
  • Weather Map
  • Weather Widgets
  • user-avatar
    Login

    Hourly Weather Spisska Bela

    Today, 21 May, Monday

    Time Temperature Precipitation Wind Pressure Humidity
    00:00 +8°C° 0 mm 1 mps 712 mmHg 92%
    01:00 +8°C° 0 mm 1 mps 711 mmHg 93%
    02:00 +8°C° 0 mm 1 mps 711 mmHg 92%
    03:00 +7°C° 0 mm 1 mps 711 mmHg 92%
    04:00 +7°C° 0 mm 1 mps 711 mmHg 91%
    05:00 +8°C° 0 mm 2 mps 711 mmHg 84%
    06:00 +10°C° 0 mm 2 mps 711 mmHg 77%
    07:00 +13°C° 0 mm 3 mps 712 mmHg 67%
    08:00 +14°C° 0 mm 3 mps 712 mmHg 61%
    09:00 +16°C° 0 mm 3 mps 712 mmHg 56%
    10:00 +17°C° 0 mm 4 mps 712 mmHg 50%
    11:00 +18°C° 0 mm 4 mps 711 mmHg 50%
    12:00 +19°C° 0 mm 4 mps 711 mmHg 49%
    13:00 +19°C° 0 mm 3 mps 711 mmHg 48%
    14:00 +19°C° 0.1 mm 3 mps 710 mmHg 53%
    15:00 +18°C° 0.1 mm 3 mps 710 mmHg 58%
    16:00 +18°C° 0.1 mm 3 mps 709 mmHg 62%
    17:00 +16°C° 0.1 mm 3 mps 709 mmHg 70%
    18:00 +14°C° 0.1 mm 2 mps 709 mmHg 79%
    19:00 +13°C° 0.1 mm 2 mps 708 mmHg 87%
    20:00 +12°C° 0 mm 1 mps 708 mmHg 89%
    21:00 +11°C° 0 mm 1 mps 708 mmHg 92%
    22:00 +10°C° 0 mm 1 mps 708 mmHg 94%
    23:00 +9°C° 0 mm 1 mps 708 mmHg 94%

    Tomorrow, 22 May, Tuesday

    Time Temperature Precipitation Wind Pressure Humidity
    00:00 +9°C° 0 mm 1 mps 708 mmHg 94%
    01:00 +9°C° 0 mm 1 mps 708 mmHg 93%
    02:00 +9°C° 0 mm 1 mps 708 mmHg 93%
    03:00 +9°C° 0 mm 1 mps 708 mmHg 93%
    04:00 +9°C° 0 mm 1 mps 708 mmHg 93%
    05:00 +11°C° 0 mm 1 mps 708 mmHg 88%
    06:00 +13°C° 0 mm 1 mps 708 mmHg 83%
    07:00 +15°C° 0 mm 1 mps 709 mmHg 78%
    08:00 +17°C° 0.1 mm 2 mps 709 mmHg 72%
    09:00 +18°C° 0.1 mm 2 mps 709 mmHg 67%
    10:00 +20°C° 0.1 mm 3 mps 709 mmHg 62%
    11:00 +20°C° 0.4 mm 3 mps 709 mmHg 63%
    12:00 +20°C° 0.4 mm 3 mps 709 mmHg 65%
    13:00 +20°C° 0.4 mm 3 mps 709 mmHg 66%
    14:00 +20°C° 0.6 mm 3 mps 709 mmHg 68%
    15:00 +20°C° 0.6 mm 2 mps 709 mmHg 70%
    16:00 +20°C° 0.6 mm 2 mps 709 mmHg 72%
    17:00 +18°C° 0.2 mm 2 mps 709 mmHg 78%
    18:00 +18°C° 0.2 mm 1 mps 708 mmHg 84%
    19:00 +16°C° 0.2 mm 1 mps 708 mmHg 90%
    20:00 +15°C° 0.1 mm 1 mps 708 mmHg 91%
    21:00 +14°C° 0.1 mm 1 mps 709 mmHg 92%
    22:00 +14°C° 0.1 mm 1 mps 709 mmHg 94%
    23:00 +14°C° 0.1 mm 1 mps 709 mmHg 94%

    Day after tomorrow, 23 May, Wednesday

    Time Temperature Precipitation Wind Pressure Humidity
    00:00 +14°C° 0.1 mm 1 mps 709 mmHg 94%
    01:00 +14°C° 0.1 mm 1 mps 709 mmHg 94%
    02:00 +14°C° 0.3 mm 1 mps 709 mmHg 95%
    03:00 +13°C° 0.3 mm 1 mps 709 mmHg 95%
    04:00 +13°C° 0.3 mm 1 mps 709 mmHg 95%
    05:00 +14°C° 0.2 mm 1 mps 709 mmHg 94%
    06:00 +15°C° 0.2 mm 1 mps 710 mmHg 93%
    07:00 +16°C° 0.2 mm 1 mps 710 mmHg 92%
    08:00 +18°C° 0.4 mm 1 mps 710 mmHg 88%
    09:00 +19°C° 0.4 mm 1 mps 711 mmHg 85%
    10:00 +20°C° 0.4 mm 1 mps 711 mmHg 82%
    11:00 +21°C° 0.1 mm 1 mps 711 mmHg 76%
    12:00 +22°C° 0.1 mm 1 mps 711 mmHg 69%
    13:00 +23°C° 0.1 mm 1 mps 711 mmHg 62%
    14:00 +23°C° 0.7 mm 1 mps 711 mmHg 66%
    15:00 +23°C° 0.7 mm 1 mps 711 mmHg 69%
    16:00 +22°C° 0.7 mm 1 mps 710 mmHg 73%
    17:00 +21°C° 0.7 mm 1 mps 710 mmHg 79%
    18:00 +19°C° 0.7 mm 1 mps 710 mmHg 85%
    19:00 +18°C° 0.7 mm 1 mps 710 mmHg 91%
    20:00 +16°C° 0.4 mm 1 mps 710 mmHg 92%
    21:00 +15°C° 0.4 mm 1 mps 710 mmHg 93%
    22:00 +14°C° 0.4 mm 1 mps 710 mmHg 95%
    23:00 +14°C° 0 mm 1 mps 710 mmHg 95%

    24 May, Thursday

    Time Temperature Precipitation Wind Pressure Humidity
    00:00 +13°C° 0 mm 1 mps 710 mmHg 95%
    01:00 +13°C° 0 mm 1 mps 710 mmHg 95%
    02:00 +13°C° 0 mm 1 mps 710 mmHg 96%
    03:00 +13°C° 0 mm 1 mps 710 mmHg 96%
    04:00 +13°C° 0 mm 1 mps 710 mmHg 96%
    05:00 +14°C° 0 mm 2 mps 710 mmHg 94%
    06:00 +15°C° 0 mm 2 mps 710 mmHg 92%
    07:00 +16°C° 0 mm 2 mps 711 mmHg 90%
    08:00 +17°C° 0.1 mm 2 mps 711 mmHg 86%
    09:00 +18°C° 0.1 mm 2 mps 711 mmHg 82%
    10:00 +19°C° 0.1 mm 2 mps 711 mmHg 78%
    11:00 +20°C° 0.2 mm 3 mps 711 mmHg 76%
    12:00 +20°C° 0.2 mm 3 mps 711 mmHg 74%
    13:00 +21°C° 0.2 mm 3 mps 711 mmHg 71%
    14:00 +21°C° 0.3 mm 3 mps 711 mmHg 73%
    15:00 +20°C° 0.3 mm 3 mps 710 mmHg 74%
    16:00 +20°C° 0.3 mm 3 mps 710 mmHg 76%
    17:00 +19°C° 0.3 mm 3 mps 710 mmHg 81%
    18:00 +18°C° 0.3 mm 2 mps 710 mmHg 87%
    19:00 +17°C° 0.3 mm 2 mps 710 mmHg 92%
    20:00 +16°C° 0.1 mm 2 mps 710 mmHg 94%
    21:00 +15°C° 0.1 mm 2 mps 710 mmHg 95%
    22:00 +14°C° 0.1 mm 2 mps 710 mmHg 96%
    23:00 +14°C° 0 mm 2 mps 710 mmHg 97%

    25 May, Friday

    Time Temperature Precipitation Wind Pressure Humidity
    00:00 +14°C° 0 mm 2 mps 710 mmHg 97%
    01:00 +14°C° 0 mm 2 mps 710 mmHg 97%
    02:00 +14°C° 0 mm 2 mps 710 mmHg 97%
    03:00 +14°C° 0 mm 2 mps 710 mmHg 97%
    04:00 +13°C° 0 mm 1 mps 710 mmHg 97%
    05:00 +15°C° 0 mm 2 mps 711 mmHg 93%
    06:00 +16°C° 0 mm 2 mps 711 mmHg 89%
    07:00 +17°C° 0 mm 2 mps 711 mmHg 86%
    08:00 +18°C° 0 mm 2 mps 711 mmHg 78%
    09:00 +20°C° 0 mm 2 mps 712 mmHg 70%
    10:00 +21°C° 0 mm 3 mps 712 mmHg 62%
    11:00 +22°C° 0.1 mm 3 mps 712 mmHg 61%
    12:00 +22°C° 0.1 mm 3 mps 712 mmHg 60%
    13:00 +24°C° 0.1 mm 3 mps 712 mmHg 59%
    14:00 +22°C° 0.3 mm 3 mps 712 mmHg 64%
    15:00 +22°C° 0.3 mm 3 mps 712 mmHg 68%
    16:00 +22°C° 0.3 mm 3 mps 711 mmHg 72%
    17:00 +20°C° 0.2 mm 3 mps 711 mmHg 77%
    18:00 +19°C° 0.2 mm 2 mps 711 mmHg 83%
    19:00 +17°C° 0.2 mm 2 mps 712 mmHg 88%
    20:00 +17°C° 0 mm 2 mps 712 mmHg 90%
    21:00 +16°C° 0 mm 2 mps 712 mmHg 92%
    22:00 +15°C° 0 mm 1 mps 712 mmHg 94%
    23:00 +14°C° 0 mm 1 mps 712 mmHg 95%

    26 May, Saturday

    Time Temperature Precipitation Wind Pressure Humidity
    00:00 +14°C° 0 mm 1 mps 712 mmHg 95%
    01:00 +13°C° 0 mm 1 mps 712 mmHg 95%
    02:00 +13°C° 0 mm 1 mps 712 mmHg 95%
    03:00 +13°C° 0 mm 1 mps 712 mmHg 95%
    04:00 +12°C° 0 mm 1 mps 713 mmHg 95%
    05:00 +14°C° 0 mm 1 mps 713 mmHg 89%
    06:00 +16°C° 0 mm 1 mps 713 mmHg 83%
    07:00 +19°C° 0 mm 1 mps 714 mmHg 78%
    08:00 +21°C° 0 mm 1 mps 714 mmHg 70%
    09:00 +23°C° 0 mm 2 mps 715 mmHg 62%
    10:00 +24°C° 0 mm 2 mps 715 mmHg 54%
    11:00 +25°C° 0.1 mm 2 mps 715 mmHg 54%
    12:00 +25°C° 0.1 mm 2 mps 715 mmHg 55%
    13:00 +25°C° 0.1 mm 2 mps 715 mmHg 55%
    14:00 +25°C° 0.7 mm 2 mps 714 mmHg 60%
    15:00 +24°C° 0.7 mm 2 mps 714 mmHg 66%
    16:00 +24°C° 0.7 mm 2 mps 714 mmHg 71%
    17:00 +21°C° 0.3 mm 2 mps 714 mmHg 76%
    18:00 +21°C° 0.3 mm 1 mps 714 mmHg 81%
    19:00 +19°C° 0.3 mm 1 mps 714 mmHg 87%
    20:00 +18°C° 0 mm 1 mps 714 mmHg 89%
    21:00 +18°C° 0 mm 1 mps 714 mmHg 90%
    22:00 +16°C° 0 mm 1 mps 714 mmHg 92%
    23:00 +16°C° 0 mm 1 mps 714 mmHg 93%
    Show more